GPS BIIF-2 (PRN 01)

Last updated on Sat Aug 19 2023 00:03:07 GMT+0000 (Coordinated Universal Time)

1 37753U 11036A 23229.78832829 -.00000089 00000+0 00000+0 0 9997 2 37753 56.7412 12.1471 0127253 56.1909 306.2488 2.00568564 88528

Satellite not in orbit

GPS BIIF-2 (PRN 01)